Tracking 29967 objects as of 6-Dec-2024
HD Live streaming from Space Station
objects crossing your sky now

TITAN 3C TRANSTAGE DEB

Track TITAN 3C TRANSTAGE DEB now!


NORAD ID: 43515
Int'l Code: 1969-013T
Perigee: 35,836.3 km
Apogee: 38,571.0 km
Inclination: 0.8 °
Period: 1,508.7 minutes
Semi major axis: 43574 km
RCS: Unknown
Launch date: February 9, 1969
Source: United States (US)
Launch site: ()

Note: This is SATELLITE DEBRIS
Your satellite tracking list
Your tracking list is empty




NASA's NSSDC Master Catalog

Two Line Element Set (TLE):
1 43515U 69013T   24339.78234078 -.00000126  00000-0  00000-0 0  9997
2 43515   0.7705  11.3442 0313802 185.6367 161.9561  0.95444705 22884
Source of the keplerian elements: AFSPC